Location: Castiglione Fibocchi
(43.5333°N, 11.7667°E)
Time: 08:53:19
(UTC+00:00)

CENTAUR R/B - Pass Details

Date: 15 August 2020
Orbit: 754 x 1434 km, 63.5° (Epoch: 17 September)

Event Time Altitude Azimuth Distance (km) Brightness Sun altitude
Rises 03:18:07 0° 324° (NW) 4,106 5.7 -10.6°
Reaches altitude 10° 03:20:51 10° 329° (NNW) 3,228 5.2 -10.2°
Maximum altitude 03:28:39 53° 45° (NE) 1,634 4.1 -9.0°
Drops below altitude 10° 03:37:12 10° 121° (ESE) 3,528 5.9 -7.6°
Sets 03:40:18 0° 126° (SE) 4,512 6.4 -7.1°
